Aérodrome :
LOGIN :

S'inscrire | Disclaimer

   EN    FR    IT 

 










Légende :    VFR   VFR Marginal   IFR   IFR Intensif   IFR Très Intensif
Visi : 
Plafond : 
>= 8 km
>= 3000ft
5 à 8 km
1000 à 3000 ft
1500m à 5 km
500 à 1000 ft
800 à 1500m
200 à 500 ft
< 800m
< 200 ft
Symboles :   Orages  Brouillard  Fortes neiges  Fortes précipitations  Vent > 20 kt
SIGMETs :   Divers  Orages  Givrage  Turbulence  Onde Orograph.  Cendres Volcan.







- Altitude de l'aérodrome : 2776 ft
- Code IATA : VLL


LEVD - Valladolid

METAR N/A
TAF TAF LEVD
Valide du 21 à 06h jusqu'au 22 à 06h UTC


210500Z 2106/2206 04006KT CAVOK TX31/2115Z TN14/2106Z
Pas de NOTAMs connus pour ce terrain.
1 SIGMET publié pour la FIR Madrid (LECM) :
 
Orages noyés dans la masse
LECM SIGMET 1 VALID 211514/211700 LEVA
LECM MADRID FIR/UIR EMBD TS OBS AT 1514Z W OF LINE N3830 W00620 - N3720 W00650 TOP FL340 STNR NC=



MET'MAP, la Météo Aéronautique d'un coup d'oeil ! - Copyright ORBIFLY Décembre 2007 - Disclaimer

ORBIFLY MET'MAP TEAM :

Programmation & Développement : Alexandra Zaïnal
Conception & Développement : Baudouin d'Aumeries
Co-Programmation & Développement : Marc-Olivier Méhu
Soutien technique & logistique : Manuel Goepfert

Contact : metmap@orbifly.com




SOURCES & CREDITS :

   NOAA